Regional Weather Roundup
Issued by NWS

Home | Current Version | Previous Version | Text Only | Print | Product List | Glossary On
Versions: 1 2 3 4 5 6 7 8 9 10 11 12 13 14 15 16 17 18 19 20 21 22 23 24 25 26 27 28 29 30 31 32 33 34 35 36 37 38 39 40 41 42 43 44 45 46 47 48 49 50
000
ASUS43 KMKX 252211
RWRWI

WISCONSIN REGIONAL WEATHER ROUNDUP
NATIONAL WEATHER SERVICE MILWAUKEE/SULLIVAN WI
500 PM CDT SAT MAR 25 2017

NOTE: "FAIR" INDICATES FEW OR NO CLOUDS BELOW 12,000 FEET WITH NO
SIGNIFICANT WEATHER AND/OR OBSTRUCTIONS TO VISIBILITY.

WIZ001-002-006>008-014>016-023>028-252300-
NORTHWEST WISCONSIN

CITY           SKY/WX    TMP DP  RH WIND       PRES   REMARKS
SUPERIOR ARPT  CLOUDY    33  31  90 E13G21    30.20R WCI  24
ASHLAND        CLOUDY    35  29  78 NE15      30.20S WCI  25
HAYWARD        CLOUDY    45  29  53 NE10      30.12F
SIREN          CLOUDY    45  31  56 SE12      30.11S
CUMBERLAND     CLOUDY    41  32  70 NE10      30.09F
RICE LAKE      CLOUDY    43  32  65 CALM      30.11F
CHETEK         CLOUDY    40  32  73 E9        30.10F WCI  35
LADYSMITH      CLOUDY    41  33  72 NE12      30.13F
EAU CLAIRE     CLOUDY    41  33  73 E15       30.08F
MENOMONIE      CLOUDY    41  33  73 NE13      30.09F
NEW RICHMOND   CLOUDY    42  32  68 E10       30.09S
OSCEOLA        CLOUDY    43  33  67 E12       30.12S
$$

WIZ003>005-009-010-017-018-252300-
NORTH CENTRAL WISCONSIN

CITY           SKY/WX    TMP DP  RH WIND       PRES   REMARKS
MANITOWISH WTR CLOUDY    37  32  83 E8        30.15S WCI  30
ARBOR VITAE    CLOUDY    39  31  73 SE7       30.14S WCI  34
WOODRUFF       CLOUDY    39  31  73 SE7       30.14S WCI  34
RHINELANDER    CLOUDY    41  31  67 E17       30.14F
EAGLE RIVER    CLOUDY    39  29  67 E12G18    30.15S WCI  32
LAND O LAKES   CLOUDY    37  30  77 E7        30.18S WCI  31
PHILLIPS       CLOUDY    38  31  76 E8        30.12F WCI  33
TOMAHAWK       CLOUDY    38  30  71 E7        30.13F WCI  33
MEDFORD        CLOUDY    38  32  78 E10       30.10S WCI  31
MERRILL        CLOUDY    38  32  77 E10G17    30.12F WCI  32
$$

WIZ029-030-035-036-043>047-252300-
CENTRAL WISCONSIN

CITY           SKY/WX    TMP DP  RH WIND       PRES   REMARKS
WAUSAU         CLOUDY    38  31  76 E13       30.11S WCI  30
MOSINEE        CLOUDY    37  34  87 E12       30.12F WCI  30
MARSHFIELD     CLOUDY    38  31  76 E22       30.08F WCI  27
STEVENS POINT  DRIZZLE   33  32  96 NE13G22   30.12F WCI  24
WAUPACA        LGT RAIN  37  34  89 NE10      30.13F WCI  30
WAUTOMA        CLOUDY    36  35  96 E12       30.10F WCI  28
WISC RAPIDS    LGT RAIN  36  34  92 E16G26    30.10F WCI  26
CAMP DOUGLAS   DRIZZLE   37  36  93 E10       30.07S FOG     WCI  30
$$

WIZ011>013-019>022-031-037>040-048>050-252300-
NORTHEAST WISCONSIN

CITY           SKY/WX    TMP DP  RH WIND       PRES   REMARKS
ANTIGO         CLOUDY    35  30  83 E20       30.14S WCI  24
SHAWANO        CLOUDY    36  32  86 NE15      30.18S WCI  26
OCONTO         CLOUDY    34  30  85 NE8       30.19F WCI  28
STURGEON BAY   CLOUDY    35  32  88 NE12      30.19F WCI  27
GREEN BAY      CLOUDY    37  35  92 NE18      30.14F WCI  27
MANITOWOC      LGT RAIN  38  35  89 NE9       30.13F WCI  31
APPLETON       LGT RAIN  36  36 100 NE15G25   30.11F WCI  26
CLINTONVILLE   DRIZZLE   34  32  93 NE15G23   30.15F WCI  24
OSHKOSH        CLOUDY    37  34  89 NE13      30.10F WCI  29
$$

WIZ032>034-041-042-053>061-252300-
SOUTHWEST WISCONSIN

CITY           SKY/WX    TMP DP  RH WIND       PRES   REMARKS
LA CROSSE      CLOUDY    40  35  83 E12G21    30.05F WCI  33
SPARTA         CLOUDY    37  36  96 E13       30.06F FOG     WCI  29
VIROQUA        CLOUDY    37  37  99 E17G23    30.00F WCI  27
BOSCOBEL       CLOUDY    41  37  86 E14G21    30.01F
PRAIRIE DU CHI DRIZZLE   38  38  97 E8        30.00S WCI  33
PLATTEVILLE    CLOUDY    40  40 100 E20       29.97S WCI  31
$$

WIZ056-057-062-063-064-067-068-252300-
SOUTH CENTRAL WISCONSIN

CITY           SKY/WX    TMP DP  RH WIND       PRES   REMARKS
REEDSBURG      CLOUDY    37  37 100 E9G18     30.05F FOG     WCI  30
BARABOO/DELLS  LGT SNOW  37  35  94 E16G25    30.05F WCI  27
LONE ROCK      CLOUDY    40  36  86 E18G25    30.03F FOG     WCI  31
MINERAL POINT  LGT RAIN  39  39 100 E22       29.97F WCI  29
MADISON        CLOUDY    39  37  92 E16G24    30.04F WCI  30
MIDDLETON      CLOUDY    40  39  97 E17       30.04S WCI  31
WATERTOWN      CLOUDY    38  38 100 E13       30.04F WCI  31
MONROE         CLOUDY    39  37  93 NE13G21   29.98F FOG     WCI  32
JANESVILLE     LGT RAIN  41  41 100 E18       30.01S FOG
$$

WIZ051-052-058>065-066-070>072-252300-
SOUTHEAST WISCONSIN

CITY           SKY/WX    TMP DP  RH WIND       PRES   REMARKS
MILWAUKEE      LGT RAIN  39  37  92 NE14      30.07F WCI  31
WAUKESHA       CLOUDY    36  36 100 E16       30.07S WCI  26
MILWAUKEE/TIMM CLOUDY    37  36  93 NE9       30.09S WCI  31
RACINE         CLOUDY    39  37  92 NE10      30.07F WCI  32
KENOSHA        LGT RAIN  40  38  93 NE14      30.04F FOG     WCI  32
FOND DU LAC    CLOUDY    39  34  82 E14       30.10S WCI  31
SHEBOYGAN      LGT RAIN  38  35  89 NE15      30.11R WCI  29
WEST BEND      CLOUDY    37  37 100 E15G21    30.08S WCI  28
JUNEAU         CLOUDY    37  36  96 NE13      30.07F WCI  29
$$

LSZ147-162-252300-
LAKE SUPERIOR

STATION/POSITION TIME  TEMP    WIND        PRES    WAVE
                       AIR SEA DIR/SP/G            HT/PER
                 (UTC) (F)     (DEG/KT/KT) (MB)    (FT/S)
DEVILS ISLAND    2200   32      60/ 20/ 24 1024.3F
PORT WING        2140   33      40/ 20/ 23 1022.7F
SAXON HARBOR     2140   33      50/ 17/ 18 1022.0F
$$

LMZ867-665-643>646-252300-
LAKE MICHIGAN

STATION/POSITION TIME  TEMP    WIND        PRES    WAVE
                       AIR SEA DIR/SP/G            HT/PER
                 (UTC) (F)     (DEG/KT/KT) (MB)    (FT/S)
CHAMBERS ISLAND  2140   34      40/ 12/ 16 1022.7F
NORTHPORT PIER   2140   34      60/ 13/ 17 1023.7S
SISTER BAY       2136   36     100/  9/ 15   N/A
KEWAUNEE LAKESHO 2142   36      40/ 12/ 17 1020.8F
SHEBOYGAN LAKESH 2200   37      30/ 13/ 14 1020.0S
PORT WASHINGTON  2140   38      40/ 12/ 15 1020.3S
MILWAUKEE LAKESH 2150   38      30/ 15/ 16   N/A
KENOSHA   LAKESH 2200   38      20/ 15/ 17 1017.3
$$

TC  - TEMPERATURE IN CELSIUS
VSB - VISIBILITY IN STATUTE MILES
WCI - WIND CHILL INDEX
HX  - HEAT INDEX





USA.gov is the U.S. government's official web portal to all federal, state and local government web resources and services.